Погода Нерчинский Завод

Погода Нерчинский Завод : погода сейчас, прогноз погоды и архив. Всё, что Вы хотите узнать о погоде Нерчинский Завод!

Хотите узнать прогноз погоды Нерчинский Завод? Тогда Вам сюда: Погода Нерчинский Завод

Поиск расширенной информации на нашем сайте:

Другие новости

Новости СМИ2

Главная страница сайта

Новости сайта

03.07.2017

Напоминаем, что на нашем специализированном сайте Метеоцентр.Азия вы можете получить высокодетализированные автоматические прогнозы погоды по пунктам России, СНГ и мира в авиационном формате (включающие направление и скорость ветра, видимость, явления погоды, количество и форму облачности, нижнюю и верхнюю границу облачности).


Погода Нерчинский Завод - сегодня

Время (UTC), дата Ветер
(°,м/с) 
Видим.   Явления Облачность Т
(°С)
Тd
(°С)
f(%) Тe
(°С)
Pmin
(гПа)
dP
(гПа)
Po
(мм)
O2
(г/м3)
Тmin Tmax R s Состояние
почвы
21 18.10.18 тихо ()   н/о    1/0 верхняя 
[Ci fib]
-2.5 -6.9 72 -3  1024.5  0.1  711  290           
00 19.10.18 тихо ()   20000 м    4/0 верхняя 
[Ci fib]
+0.1 -5.4 66 1024.6  0.8  712  287  -3.4         
03 19.10.18 040 (СВ) 20000 м    4/0 верхняя 
[Ci fib]
+9.1 -5.1 36 +10  1020.9  -1.1  711  278           
06 19.10.18 210 (ЮЗ) 20000 м    10/0 верхняя 
[Ci sp]
+14.6 -5.1 25 +15  1017.2  -2.1  709  272           
09 19.10.18 240 (ЮЗ) 20000 м    10/0 верхняя 
[Ci]
+12.7 -5 29 +13  1016.8  -0.8  709  273           
15 19.10.18 тихо ()   н/о    9/0 верхняя 
[Ci ing]
+1 -6.1 59 +1  1021.2  0.2  710  285           
18 19.10.18 тихо ()   н/о    3/0 верхняя 
[Ci ing]
-1.3 -6.4 68 -1  1021.5  -0.3  709  288           
21 19.10.18 тихо ()   н/о    ясно 
-3.1 -6.7 76 -3  1021.9  -0.2  709  290           
00 20.10.18 тихо ()   20000 м    3/0 верхняя 
[Ci fib]
-0.5 -5.8 67 -1  1021.7  0.5  710  287  -4.5         
03 20.10.18 060 (СВ) 20000 м    ясно 
+9.3 -7.1 31 +10  1018.4  -0.5  709  277           
06 20.10.18 210 (ЮЗ) 20000 м    ясно 
+13.6 -10.3 18 +14  1015.1  -2.1  708  272           
09 20.10.18 170 (Ю) 20000 м    3/0 верхняя 
[Ci sp]
+9 -8.8 27 +10  1015.7  -0.5  707  277           
15 20.10.18 тихо ()   н/о    4/0 средняя, верхняя 
[Ac cast|Ci fib]
+0.1 -7.3 57 1018  -0.2  707  285           
18 20.10.18 300 (СЗ) н/о    10/0 средняя, верхняя 
[Ac trans|Ci sp]
+1.6 -5.9 57 +2  1016.4  -1.1  706  283           
21 20.10.18 тихо ()   н/о    10/0 верхняя 
[Ci sp]
-0.4 -5.7 67 -0  1016.2  -0.8  706  285           
00 21.10.18 тихо ()   20000 м  {ливн. осадки}  10/0 средняя 
[As op]
+1.2 -0.3 90 +1  1015.6  -0.1  706  283  -0.6    0.6     
03 21.10.18 070 (В) 20000 м    10/10 600 м кучево-дожд. 
[Cb cap]
+8.1 +0.2 57 +9  1012.2  -1.4  705  276           
06 21.10.18 100 (В) 20000 м    10/0 верхняя 
[Cs]
+10 +2.5 60 +10  1010.1  -1.4  704  273           
09 21.10.18 тихо ()   20000 м    10/3 1000 м средняя 
[Sc|Ac trans]
+8.2 +1.7 64 +8  1009.9  -0.6  703  275           
15 21.10.18 тихо ()   н/о    10/0 средняя 
[Ac As]
+1.6 +0 89 +2  1010.5  -0.9  702  281           
18 21.10.18 тихо ()   н/о    10/0 средняя 
[As op]
+2.3 +0.6 88 +2  1009.2  -1  701  280           
21 21.10.18 тихо ()   н/о    10/0 средняя 
[As op]
+1.4 +0.2 92 +1  1008.3  -1.1  701  281           
00 22.10.18 150 (ЮВ) 10 км  слаб. дождь  10/0 средняя 
[As op]
+2 +1.1 94 +3  1007.4  -0.7  700  280  +1.2    0.5     
03 22.10.18 080 (В) 20000 м  {дождь}  10/0 средняя 
[As op]
+5.3 +3.9 91 +6  1005.1  -1.2  699  276           
06 22.10.18 250 (З) 20000 м  {гроза, ливн. осадки}  10/6 600 м кучево-дожд., средняя 
[Cb cap|Ac und]
+5.7 +4.2 90 +5  1004.3  -0.6  699  275           
Время (UTC), дата Ветер
(°,м/с) 
Видим.   Явления Облачность Т
(°С)
Тd
(°С)
f(%) Тe
(°С)
Pmin
(гПа)
dP
(гПа)
Po
(мм)
O2
(г/м3)
Тmin Tmax R s Состояние
почвы

Для получения пояснительной информации подведите курсор к названию столбца.

ПОГОДА Нерчинский Завод - архив

Всё, что Вы хотите узнать о погоде Нерчинский Завод - удобно и подробно!

Выберите нужную дату (начиная с 1 января 2015* года) и нажмите кнопку "Найти".
Будут отображены архивные сводки погоды по пункту Нерчинский Завод, начиная с указанной даты.


Отображать данные в формате CSV (для использования в таблицах Excel)


Внимание! Наш архив погоды предназначен исключительно для личного некоммерческого использования в познавательных целях. Если Вам необходимы официальные справки о состоянии погоды (для производственных, юридических, коммерческих и т.п. целей), обращайтесь в органы Росгидромета.

*Примечание: данная дата относится к архиву по метеостанциям СССР (Россия, СНГ, Балтия).
Архив по метеостанциям Зарубежной Европы и Азии (кроме Китая) хранится 10 дней, по другим регионам земного шара (Китай, Африка, Америка, Австралия, Океания) - 1 день.

Нерчинский Завод - район местоположения метеостанции


Название, широта, долгота, высота метеостанции:
Нерчинский Завод 51.3°ш. 119.6°д. 619 м над ур. моря [Российская Федерация]

Дополнительная информация

В oтличие oт бoльшинства пoгoдных сайтoв мы публикуем пoдрoбную метеoинфoрмацию в детальнoм прoфессиoнальнoм фoрмате.

Характеристики температуры и влажнoсти вoздуха измеряются на высoте 2 м в тени вдали oт зданий и деревьев.
Скoрoсть ветра измеряется на высoте 10 м (на урoвне рoста челoвека скoрoсть ветра ниже в 1.5-2 раза). Если метеoстанция нахoдится в гoрoде или в лесу, тo скoрoсть ветра занижена на 2-4 м/с пo сравнению с oткрытым местoм. Скoрoсть ветра над акватoриями крупных рек и oзёр, а также на вершинах хoлмoв на 2-5 м/с выше, чем в oбычных услoвиях.
Атмoсфернoе давление в разных тoчках местнoсти мoжет значительнo oтличаться oт давления на метеoстанции, в зависимoсти oт услoвий рельефа (при пoдъёме на 10 м давление пoнижается примернo на 1 мм рт.ст.).